{"data":{"norad_id":64694,"epoch":"2026-09-19T23:05:51.300384Z","epoch_age_seconds":68321,"freshness":"FRESH","line1":"1 64694U 25141A   26262.96239931  .00000406  00000+0  79921-4 0  9993","line2":"2 64694  98.0606 198.7476 0001419  84.5616 275.5751 14.67552705 65743","mean_motion":14.67552705,"eccentricity":0.0001419,"inclination_deg":98.0606,"raan_deg":198.7476,"arg_perigee_deg":84.5616,"mean_anomaly_deg":275.5751,"bstar":7.9921e-5,"rev_number":6574,"period_min":98.122540682449,"perigee_km":667.891666039,"apogee_km":669.89161276687,"semimajor_km":7047.0286394029,"source":"CELESTRAK","updated_at":"2026-09-20T09:00:33.981521Z"}}